Location: Rio Negrinho
(26.2394°S, 49.4999°W)
Time: 08:24:12
(UTC+00:00)

H-2A R/B - Pass Details

Date: 06 October 2020
Orbit: 500 x 542 km, 97.3° (Epoch: 17 June)

Event Time Altitude Azimuth Distance (km) Brightness Sun altitude
Rises 07:35:26 0° 44° (NE) 2,637 6.7 -17.6°
Reaches altitude 10° 07:38:00 10° 63° (ENE) 1,767 6.1 -17.1°
Maximum altitude 07:40:38 18° 108° (ESE) 1,343 5.9 -16.5°
Drops below altitude 10° 07:43:20 10° 151° (SSE) 1,800 6.0 -15.9°
Sets 07:45:58 0° 170° (S) 2,707 6.7 -15.3°
